FW6622 Weather Reports


time (UTC)temp
C
wind
direction
speed
KPH
gust
KPH
rain 1hr
cm
rain 24hr
cm
rain mn
cm
humidity
%
barometer
mb
20260906194605 38 88 4.8 11.3 0.00 0.00 0.00 36 1018.4
20260906193055 38 46 6.4 9.7 0.00 0.00 0.00 37 1018.6
20260906191606 38 11 3.2 9.7 0.00 0.00 0.00 34 1018.7
20260906190050 38 334 1.6 9.7 0.00 0.00 0.00 33 1019.0
20260906184601 37 28 1.6 4.8 0.00 0.00 0.00 37 1019.3
20260906183100 36 107 6.4 14.5 0.00 0.00 0.00 37 1019.4
20260906181621 36 20 3.2 8.0 0.00 0.00 0.00 38 1019.7
20260906180106 37 13 1.6 12.9 0.00 0.00 0.00 40 1020.1
20260906174555 36 299 1.6 14.5 0.00 0.00 0.00 39 1020.5
20260906173053 37 337 1.6 12.9 0.00 0.00 0.00 37 1020.8
20260906171552 36 56 3.2 14.5 0.00 0.00 0.00 39 1020.9
20260906164557 36 234 1.6 6.4 0.00 0.00 0.00 44 1021.4
20260906163101 35 207 1.6 11.3 0.00 0.00 0.00 41 1021.4
20260906161556 35 5 1.6 6.4 0.00 0.00 0.00 43 1021.4
20260906160100 35 117 1.6 9.7 0.00 0.00 0.00 44 1021.3
20260906154554 34 92 1.6 6.4 0.00 0.00 0.00 44 1021.4
20260906153053 33 63 1.6 8.0 0.00 0.00 0.00 44 1021.4
20260906151550 33 0 3.2 8.0 0.00 0.00 0.00 49 1021.3
20260906150059 32 233 1.6 4.8 0.00 0.00 0.00 50 1021.3
20260906144554 31 0 0.0 3.2 0.00 0.00 0.00 54 1021.3
20260906143055 30 0 0.0 3.2 0.00 0.00 0.00 53 1021.4
20260906141550 30 255 1.6 6.4 0.00 0.00 0.00 56 1021.2
20260906140106 28 255 3.2 6.4 0.00 0.00 0.00 59 1021.3
20260906134604 27 258 1.6 6.4 0.00 0.00 0.00 62 1021.1
20260906133101 26 250 3.2 6.4 0.00 0.00 0.00 66 1021.0
20260906131551 25 0 0.0 4.8 0.00 0.00 0.00 76 1020.7
20260906130108 24 290 1.6 4.8 0.00 0.00 0.00 77 1020.6
20260906124602 23 0 0.0 0.0 0.00 0.00 0.00 80 1020.3
20260906123058 22 0 0.0 0.0 0.00 0.00 0.00 79 1020.1
20260906121606 22 0 0.0 0.0 0.00 0.00 0.00 80 1019.8
20260906120055 22 0 0.0 0.0 0.00 0.00 0.00 81 1019.7
20260906114614 22 0 0.0 0.0 0.00 0.00 0.00 80 1019.6
20260906113110 22 0 0.0 0.0 0.00 0.00 0.00 81 1019.5
20260906111605 22 0 0.0 0.0 0.00 0.00 0.00 81 1019.3
20260906110106 22 0 0.0 0.0 0.00 0.00 0.00 82 1019.2
20260906104601 22 0 0.0 0.0 0.00 0.00 0.00 79 1019.1
20260906103055 22 0 0.0 1.6 0.00 0.00 0.00 79 1019.2
20260906101554 22 15 0.0 1.6 0.00 0.00 0.00 79 1019.2
20260906100051 22 0 0.0 0.0 0.00 0.00 0.00 80 1019.1
20260906094558 22 0 0.0 0.0 0.00 0.00 0.00 80 1019.3
20260906093056 23 0 0.0 0.0 0.00 0.00 0.00 77 1019.3
20260906091553 23 0 0.0 0.0 0.00 0.00 0.00 80 1019.2
20260906090048 22 0 0.0 0.0 0.00 0.00 0.00 79 1019.1
20260906084554 23 0 0.0 0.0 0.00 0.00 0.00 77 1019.1
20260906083055 23 0 0.0 0.0 0.00 0.00 0.00 75 1019.1
20260906081556 23 0 0.0 1.6 0.00 0.00 0.00 76 1018.9
20260906080051 24 0 0.0 0.0 0.00 0.00 0.00 74 1018.8
20260906074548 23 0 0.0 1.6 0.00 0.00 0.00 77 1018.8
20260906073055 23 15 0.0 1.6 0.00 0.00 0.00 75 1018.7
20260906071554 23 0 0.0 1.6 0.00 0.00 0.00 73 1018.8
20260906070052 23 0 0.0 3.2 0.00 0.00 0.00 74 1018.8
20260906064557 24 15 1.6 3.2 0.00 0.00 0.00 71 1018.9
20260906063055 23 0 0.0 0.0 0.00 0.00 0.00 74 1019.0
20260906061555 23 0 0.0 0.0 0.00 0.00 0.00 72 1018.9
20260906060125 24 0 0.0 0.0 0.00 0.00 0.00 71 1019.0
20260906054604 24 0 0.0 3.2 0.00 0.00 0.00 72 1019.1
20260906053054 25 15 0.0 1.6 0.00 0.00 0.00 70 1019.1
20260906051553 25 15 1.6 3.2 0.00 0.00 0.00 68 1019.2
20260906050115 25 0 0.0 0.0 0.00 0.00 0.00 69 1019.0
20260906044555 26 0 0.0 1.6 0.00 0.00 0.00 68 1018.9
20260906043054 25 0 0.0 0.0 0.00 0.00 0.00 69 1018.9
20260906041552 25 0 0.0 0.0 0.00 0.00 0.00 68 1018.9
20260906040050 26 0 0.0 0.0 0.00 0.00 0.00 67 1019.0
20260906034559 26 0 0.0 0.0 0.00 0.00 0.00 65 1018.8
20260906033053 26 0 0.0 1.6 0.00 0.00 0.00 66 1018.6
20260906031625 26 0 0.0 0.0 0.00 0.00 0.00 65 1018.6
20260906030059 27 0 0.0 0.0 0.00 0.00 0.00 65 1018.4
20260906024600 27 0 0.0 0.0 0.00 0.00 0.00 61 1018.4
20260906023107 28 0 0.0 3.2 0.00 0.00 0.00 61 1018.3
20260906021551 28 0 0.0 1.6 0.00 0.00 0.00 56 1018.0
20260906014554 29 0 0.0 0.0 0.00 0.00 0.00 56 1017.7
20260906013053 30 0 0.0 3.2 0.00 0.00 0.00 51 1017.3
20260906011558 31 0 0.0 4.8 0.00 0.00 0.00 48 1017.0
20260906010054 32 0 0.0 1.6 0.00 0.00 0.00 46 1017.2
20260906004602 32 0 0.0 1.6 0.00 0.00 0.00 44 1017.3
20260906003054 33 0 0.0 3.2 0.00 0.00 0.00 42 1017.3
20260906001553 35 326 0.0 8.0 0.00 0.00 0.00 40 1017.3
20260906000101 35 0 1.6 6.4 0.00 0.00 0.00 38 1017.3
20260905234558 36 298 1.6 9.7 0.00 0.00 0.00 38 1017.2
20260905233101 36 329 3.2 12.9 0.00 0.00 0.00 37 1017.2
20260905231610 37 28 1.6 11.3 0.00 0.00 0.00 37 1017.0
20260905230108 37 346 3.2 8.0 0.00 0.00 0.00 35 1017.0
20260905224556 37 344 3.2 11.3 0.00 0.00 0.00 35 1017.0
20260905223056 38 307 3.2 12.9 0.00 0.00 0.00 35 1016.8
20260905221628 38 355 3.2 12.9 0.00 0.00 0.00 36 1016.9
20260905220104 37 5 1.6 12.9 0.00 0.00 0.00 35 1016.9
20260905214606 37 249 4.8 14.5 0.00 0.00 0.00 35 1016.8
20260905213054 38 326 3.2 12.9 0.00 0.00 0.00 34 1017.2
20260905211603 38 360 6.4 24.1 0.00 0.00 0.00 36 1017.4
20260905210107 38 342 3.2 9.7 0.00 0.00 0.00 34 1017.8
20260905204607 38 35 3.2 9.7 0.00 0.00 0.00 35 1018.0
20260905203100 38 28 3.2 8.0 0.00 0.00 0.00 39 1018.1
20260905201554 38 289 3.2 12.9 0.00 0.00 0.00 34 1018.3